Location: Livorno
(43.5500°N, 10.3170°E)
Time: 19:25:12
(UTC+01:00)

Envisat - Pass Details

Date: 01 November 2020
Orbit: 764 x 766 km, 98.1° (Epoch: 05 December)

Event Time Altitude Azimuth Distance (km) Brightness Sun altitude
Rises 17:48:47 0° 180° (S) 3,218 6.4 -7.7°
Reaches altitude 10° 17:51:09 10° 185° (S) 2,297 5.7 -8.1°
Maximum altitude 17:56:03 50° 261° (W) 972 4.1 -9.0°
Drops below altitude 10° 18:01:00 10° 336° (NNW) 2,313 5.7 -9.9°
Sets 18:03:24 0° 342° (NNW) 3,243 6.3 -10.3°
